Location: Bishop's University Astronomical Observatory
(45.3661°N, 71.8475°W)
Time: 08:51:23
(UTC-04:00)

CZ-4C R/B - Visible Passes

Search period start: 27 August 2014 00:00
Search period end: 06 September 2014 00:00
Orbit: 790 x 1213 km, 63.4° (Epoch: 25 August)

Date Brightness Start Highest point End Pass type
(mag) Time Alt. Az. Time Alt. Az. Time Alt. Az.
27 Aug 2.9 21:00:51 10° NW 21:07:45 77° SW 21:13:26 19° SSE visible
27 Aug 4.8 22:51:14 10° WNW 22:55:30 17° WSW 22:58:38 13° SW visible
28 Aug 3.8 21:34:48 10° NW 21:41:14 41° WSW 21:46:27 17° S visible
29 Aug 2.9 20:19:37 10° NW 20:26:31 88° SW 20:34:02 10° SE visible
29 Aug 4.7 22:09:28 10° WNW 22:14:27 21° WSW 22:19:35 10° SSW visible
30 Aug 3.6 20:53:27 10° NW 21:00:05 48° WSW 21:07:13 10° S visible
31 Aug 4.6 21:27:52 10° WNW 21:33:22 25° WSW 21:39:09 10° SSW visible
01 Sep 3.4 20:12:09 10° NW 20:18:55 57° WSW 20:26:13 10° SSE visible
01 Sep 5.3 22:04:38 10° W 22:06:20 11° WSW 22:08:04 10° WSW visible
02 Sep 4.5 20:46:22 10° NW 20:52:16 30° WSW 20:58:31 10° S visible
03 Sep 5.2 21:21:57 10° WNW 21:25:19 14° WSW 21:28:47 10° SW visible
04 Sep 4.3 20:04:55 10° NW 20:11:09 35° WSW 20:17:46 10° S visible
05 Sep 5.2 20:39:57 10° WNW 20:44:17 17° WSW 20:48:46 10° SW visible
